Location: Unspecified
(41.1850°N, 73.2650°W)
Time: 01:21:59
(UTC+00:00)

N. Korean satellite - Pass Details

Date: 24 October 2021
Orbit: 447 x 495 km, 97.3° (Epoch: 30 November)

Event Time Altitude Azimuth Distance (km) Brightness Sun altitude
Rises 10:15:13 0° 10° (N) 2,593 10.3 -11.9°
Reaches altitude 10° 10:17:19 10° 9° (N) 1,703 9.4 -11.5°
Maximum altitude 10:20:58 76° 284° (WNW) 512 6.5 -10.8°
Drops below altitude 10° 10:24:34 10° 198° (SSW) 1,670 9.2 -10.2°
Sets 10:26:37 0° 197° (SSW) 2,539 10.1 -9.8°
